Temp_Advection
nan nan nan nan nan nan nan nan nan nan nan nan nan nan nan nan nan nan nan nan nan nan
nan 0 1 1 1 1 0 0 1 1 0 0 0 0 -0 -0 -0 0 0 0 0 nan
nan 1 1 1 1 0 1 1 0 0 0 0 0 0 0 0 0 0 0 0 0 nan
nan 1 1 1 1 0 0 -0 0 0 0 0 0 0 0 0 0 0 0 0 0 nan
nan 1 1 1 0 0 -0 0 0 0 0 0 0 0 0 0 0 0 0 0 0 nan
nan 1 1 1 0 -0 0 0 0 0 0 0 0 0 0 0 0 0 0 0 0 nan
nan 1 1 0 -0 0 0 0 0 0 0 1 0 0 0 1 1 0 0 0 0 nan
nan 1 0 -0 -0 0 0 -0 0 1 0 0 0 0 0 1 1 0 0 0 0 nan
nan 1 -0 0 1 -0 -0 0 0 0 0 0 0 0 0 0 1 0 0 0 0 nan
nan 1 0 1 -0 -0 -0 0 0 -0 0 0 0 0 0 1 0 0 0 0 0 nan
nan 1 0 -0 -0 -0 0 -0 0 0 -0 0 0 0 0 1 0 0 0 0 1 nan
nan 0 -0 -0 -0 -0 0 1 -0 -0 -0 -0 0 0 0 0 1 0 0 0 0 nan
nan 0 -0 -0 -0 0 1 0 0 -0 -0 0 0 0 0 0 1 1 0 0 0 nan
nan nan nan nan nan nan nan nan nan nan nan nan nan nan nan nan nan nan nan nan nan nan
Wind_Speed
24 23 22 21 16 13 14 17 19 22 21 18 21 18 18 16 16 16 17 20 20 20
27 24 21 18 16 15 18 17 20 18 17 20 19 19 16 15 16 19 19 22 23 24
24 21 17 17 17 16 15 13 15 17 18 18 18 16 15 17 18 23 26 28 26 21
20 17 17 17 13 7 10 19 18 18 18 18 20 15 18 21 24 26 25 25 17 14
19 17 15 11 8 15 13 16 18 18 19 19 18 16 21 23 25 25 23 17 17 16
18 15 11 13 17 13 14 16 16 17 18 20 23 17 22 23 22 25 19 17 16 15
16 11 16 14 12 10 19 19 17 20 24 25 19 20 23 26 24 22 19 20 17 16
14 15 9 13 16 20 18 18 22 23 24 22 21 23 25 27 23 20 22 19 19 18
17 15 15 21 20 14 19 16 20 20 22 22 24 25 26 25 24 20 19 19 18 18
16 15 9 11 11 14 16 21 19 22 23 25 25 23 24 24 21 20 20 19 17 18
12 11 7 5 9 16 18 19 23 23 24 25 26 23 24 22 21 21 20 20 18 19
8 7 3 4 14 17 21 24 22 20 22 25 25 21 21 23 23 21 21 20 18 19
6 5 6 12 12 19 24 25 16 20 21 22 23 23 24 25 24 22 21 21 20 18
7 10 7 13 17 20 20 18 21 23 24 26 28 26 24 22 23 22 20 19 15 18
Wind_Direction
204 201 209 217 233 240 257 257 268 275 283 295 303 305 309 307 298 296 293 292 293 296
216 218 222 231 237 257 262 266 268 277 289 291 301 310 314 308 299 296 292 292 294 295
226 227 231 235 240 263 268 272 273 278 287 296 300 308 297 296 289 291 297 306 306 303
228 228 228 244 260 264 278 280 291 280 286 286 293 300 290 290 293 301 308 312 310 321
234 236 259 256 228 278 285 274 278 281 277 281 291 294 287 291 295 303 305 295 294 294
237 247 236 244 259 247 261 280 279 271 271 280 295 283 284 289 291 304 299 291 293 299
241 221 231 267 230 268 288 282 275 279 284 288 293 280 284 290 291 298 294 294 286 292
209 221 255 243 269 286 281 287 292 286 291 291 281 282 291 293 297 291 292 291 289 284
203 207 239 258 277 273 296 293 293 291 281 279 278 285 288 288 292 287 291 300 291 282
218 241 221 254 267 303 298 295 289 293 290 287 281 284 287 289 286 286 289 304 290 285
177 209 220 286 306 289 293 296 284 281 288 283 284 288 292 285 287 284 286 297 287 280
185 187 59 300 290 300 291 291 291 291 285 283 282 285 284 284 286 283 290 295 287 275
137 64 286 289 298 287 277 291 301 293 288 287 286 284 286 287 289 284 294 297 288 283
324 322 301 285 279 288 302 297 296 291 286 289 288 288 291 288 294 287 290 299 297 285
Height
1539 1541 1543 1543 1545 1545 1545 1544 1543 1544 1543 1542 1544 1542 1540 1537 1535 1534 1532 1530 1528 1526
1537 1538 1539 1540 1541 1541 1540 1538 1537 1538 1538 1538 1539 1538 1537 1534 1533 1531 1528 1526 1523 1521
1535 1537 1538 1539 1540 1538 1539 1539 1536 1535 1535 1534 1535 1535 1533 1531 1529 1527 1525 1522 1518 1514
1534 1535 1536 1538 1536 1536 1534 1537 1536 1535 1532 1531 1531 1531 1528 1526 1525 1523 1521 1518 1516 1512
1531 1532 1533 1534 1534 1531 1533 1532 1533 1530 1529 1528 1527 1526 1523 1521 1519 1517 1515 1514 1513 1512
1527 1528 1531 1531 1532 1531 1530 1530 1529 1528 1527 1524 1522 1520 1518 1515 1513 1512 1511 1508 1507 1506
1523 1525 1527 1529 1531 1528 1530 1528 1526 1525 1523 1521 1519 1517 1514 1511 1509 1507 1506 1505 1504 1502
1517 1521 1525 1525 1523 1524 1527 1525 1524 1521 1518 1517 1515 1512 1509 1507 1506 1504 1502 1500 1500 1497
1509 1514 1518 1516 1518 1523 1522 1519 1518 1515 1510 1508 1507 1506 1505 1502 1500 1499 1496 1495 1492 1492
1507 1509 1511 1513 1515 1516 1516 1515 1514 1513 1510 1505 1502 1501 1499 1497 1496 1494 1493 1490 1488 1487
1503 1505 1507 1508 1512 1513 1511 1509 1506 1505 1503 1499 1496 1495 1494 1492 1491 1489 1487 1485 1483 1482
1501 1499 1500 1504 1507 1507 1505 1502 1500 1499 1497 1494 1491 1489 1488 1487 1486 1485 1482 1480 1478 1477
1494 1499 1500 1499 1501 1499 1498 1495 1494 1493 1492 1488 1486 1484 1482 1481 1480 1478 1477 1475 1473 1471
1495 1495 1497 1496 1494 1493 1492 1491 1489 1487 1486 1484 1481 1479 1476 1476 1474 1473 1471 1470 1469 1466